User: anonymous   Login
Location: Caltech
(34.1382°N, 118.1253°W)
Time: 15:44:33
(UTC-07:00)
Language:

NOAA 19 - Orbit

View from above orbital plane
View from above orbital plane
View from above satellite
View from above satellite

Ground track
Ground track

The orbit data is extracted from the following two-line orbital elements,

1 33591U 09005A   16146.48424632  .00000066  00000-0  60633-4 0  9990
2 33591  99.0383 103.0731 0012954 284.7310  75.2426 14.12074953375935
Epoch (UTC): 25 May 2016 11:37:18
Eccentricity: 0.0012954
inclination: 99.0383°
perigee height: 843 km
apogee height: 861 km
right ascension of ascending node: 103.0731°
argument of perigee: 284.7310°
revolutions per day: 14.12074953
mean anomaly at epoch: 75.2426°
orbit number at epoch: 37593

The dashed part of the orbit path shows where the satellite is in the earth's shadow,  

DLR